Temperature
19 19 19 19 19 19 19 19 20 20 20 19 19 19 19 19 19 19 19 19 19 19 19 19 19 19 19 19 19 18 18 18 18 18 18 18 18 18 18 18 18 18 18
20 20 19 19 19 19 19 19 20 20 19 19 19 19 19 19 19 19 19 19 19 19 19 18 18 19 19 19 19 18 18 18 18 18 18 18 18 18 18 18 18 18 18
20 20 19 19 19 19 19 20 20 20 19 19 19 19 19 19 19 19 19 19 19 19 19 18 18 18 18 19 18 18 18 18 18 18 18 18 18 18 18 18 18 18 18
20 20 20 19 20 20 20 20 20 20 19 19 19 19 19 19 19 19 19 19 19 19 19 18 18 18 18 18 18 18 18 18 18 18 18 18 18 18 18 18 18 18 18
20 20 20 20 20 20 20 20 20 20 20 19 19 19 19 19 19 19 19 19 19 19 19 18 18 18 18 18 18 18 18 18 18 18 18 18 18 18 18 18 18 18 18
20 20 20 20 20 20 20 20 19 19 20 20 19 19 19 19 19 19 19 19 19 19 19 18 18 18 18 18 18 18 18 18 18 18 18 18 18 18 18 18 18 18 18
20 20 20 20 20 20 20 20 20 19 19 19 19 19 19 19 19 19 19 19 19 19 19 19 18 18 18 18 18 18 18 18 18 18 18 18 18 18 18 18 18 18 18
20 20 20 20 20 20 20 20 20 19 19 19 19 19 19 19 19 19 19 19 19 19 18 18 18 18 18 18 18 18 18 18 18 18 18 18 18 18 18 18 18 18 18
20 20 20 20 20 20 20 20 20 19 19 19 19 19 19 19 19 19 19 19 19 19 19 19 18 18 18 18 18 18 18 18 18 18 18 18 18 18 18 18 18 18 18
20 20 20 20 20 20 20 19 19 19 19 19 19 19 19 19 19 19 19 19 19 18 18 18 18 18 18 18 18 18 18 18 18 18 18 18 18 18 18 18 18 18 18
20 20 20 20 20 20 19 19 19 19 19 19 19 19 19 19 19 19 19 19 18 18 18 18 18 18 18 18 18 18 18 18 18 18 18 18 18 18 18 18 18 18 18
20 20 20 20 20 20 19 19 19 19 19 19 19 19 19 19 19 19 19 18 18 18 18 18 18 18 18 18 18 18 18 18 18 18 18 18 18 18 18 18 18 18 18
20 20 20 20 20 20 20 19 19 19 19 19 19 19 19 19 19 19 19 19 18 18 18 18 18 18 18 18 18 18 18 18 18 18 18 18 18 18 18 18 18 18 18
21 21 20 20 20 20 20 20 19 19 19 19 19 19 19 19 19 19 19 19 18 18 18 18 18 18 18 18 18 18 18 18 18 18 18 18 18 18 18 18 18 18 18
21 21 21 20 20 20 20 19 19 19 19 19 19 19 19 19 19 19 19 19 18 18 18 18 18 18 18 18 18 18 18 18 18 18 18 18 18 18 18 18 18 18 18
21 21 21 21 20 20 20 20 19 19 19 19 19 19 19 19 19 19 19 18 18 18 18 18 18 18 18 18 18 18 18 18 18 18 18 18 18 18 18 18 18 18 18
21 21 21 21 20 20 20 20 20 19 19 19 19 19 19 19 19 19 18 18 18 18 18 18 18 18 18 18 18 18 18 18 18 18 18 18 18 18 18 18 18 18 18
21 21 21 20 20 20 20 20 20 19 19 19 19 19 19 19 19 19 18 18 18 18 18 18 18 18 18 18 18 18 18 18 18 18 18 18 18 18 18 18 18 18 18
21 21 21 21 21 20 20 20 20 19 19 19 19 19 19 19 18 18 18 18 18 18 18 18 18 18 18 18 18 18 18 18 18 18 18 18 18 18 18 18 18 18 18
21 21 21 21 21 20 20 20 20 19 19 19 19 19 19 19 18 18 18 18 18 18 18 18 18 18 18 18 18 18 18 18 18 18 18 18 18 18 18 18 18 18 18
21 21 21 21 21 20 20 20 20 19 19 19 19 18 18 18 18 18 18 18 18 18 18 18 18 18 18 18 18 18 18 18 18 18 18 18 18 18 18 18 18 18 17
21 21 21 21 21 20 20 20 20 19 19 19 19 18 18 18 18 18 18 18 18 18 18 18 18 18 18 18 18 18 18 18 18 18 18 18 18 17 17 17 18 17 17
22 22 21 21 21 20 20 20 20 19 19 19 19 19 18 18 18 18 18 18 18 18 18 18 18 18 18 18 18 17 17 17 17 17 17 18 17 17 17 17 17 17 17
22 22 21 21 21 20 20 20 20 20 19 19 19 18 18 18 18 18 18 18 18 18 18 18 18 18 17 17 17 17 17 17 17 17 17 17 17 17 17 17 17 17 17
22 22 22 21 21 20 20 20 20 20 19 19 19 18 18 18 18 18 18 18 18 18 18 18 18 18 17 17 17 17 17 17 16 16 16 17 17 17 17 17 17 17 17
22 22 21 21 21 20 20 20 20 19 19 19 19 18 18 18 18 18 18 18 18 18 18 18 17 17 17 17 17 17 17 17 16 16 16 16 16 17 17 17 17 17 17
Wind_Speed
3 4 7 7 6 7 8 10 11 12 12 12 12 13 13 14 14 14 14 14 13 12 12 11 11 11 11 11 12 12 12 12 12 12 11 11 10 10 10 10 10 10 12
4 6 8 7 7 7 8 10 11 11 11 11 11 12 13 13 13 13 13 13 13 12 11 10 10 10 10 11 11 11 11 11 11 11 11 10 9 9 10 10 10 9 11
5 6 8 8 7 7 8 9 10 11 11 10 10 11 12 12 12 12 12 12 12 11 10 10 10 10 10 10 10 10 10 10 10 10 9 8 8 8 8 9 10 10 10
6 7 7 8 8 8 8 9 9 10 10 10 10 10 11 11 11 11 11 11 11 10 10 10 9 9 9 9 9 9 9 9 9 8 7 7 7 8 7 8 9 9 10
5 6 7 9 8 8 8 8 9 9 9 9 9 9 9 10 10 10 10 10 10 9 9 9 8 8 8 8 8 8 8 8 8 7 6 6 6 8 8 8 8 9 9
5 6 6 8 8 8 8 8 8 8 9 9 9 8 9 9 9 9 9 9 8 8 8 7 7 7 7 7 7 8 8 8 7 6 5 6 6 7 8 9 9 9 8
5 5 6 8 8 8 7 8 8 8 8 8 8 7 8 8 8 8 8 7 7 7 7 6 6 5 6 6 7 7 7 7 6 6 6 6 7 7 8 9 9 9 9
6 4 5 7 7 7 7 7 7 8 8 8 7 6 7 7 7 7 7 7 6 5 5 5 5 5 6 7 7 7 7 7 5 5 5 6 7 8 8 9 9 9 9
5 4 3 5 6 6 6 6 7 7 7 7 6 6 5 5 6 5 6 6 5 5 5 5 5 5 5 6 7 7 7 7 5 5 5 5 7 8 8 9 9 9 9
4 4 3 3 3 4 4 5 5 6 6 6 5 5 4 3 3 4 4 4 5 5 5 5 4 4 5 6 7 7 7 6 5 5 5 6 8 8 9 9 9 9 9
3 2 2 2 3 3 3 4 4 4 4 5 4 3 2 1 1 1 2 4 5 5 4 4 4 4 4 5 5 6 6 5 6 5 6 8 9 9 9 9 10 10 9
4 3 2 2 2 3 3 3 2 3 3 3 2 2 1 1 1 0 1 2 3 3 3 2 2 2 2 2 3 4 3 5 5 5 6 9 9 9 9 10 10 10 11
5 4 3 2 2 3 2 2 2 2 2 1 1 1 1 1 1 1 1 1 2 1 0 1 1 1 1 1 2 2 3 4 4 5 7 9 9 10 10 9 10 10 11
4 4 3 3 3 2 2 1 2 1 1 1 1 2 1 0 1 1 1 1 2 1 1 1 1 0 1 1 1 2 2 3 4 5 6 8 9 9 9 9 10 11 11
5 4 4 4 4 3 2 2 2 1 2 2 2 2 2 1 0 1 1 1 1 1 1 0 1 1 0 0 1 1 2 3 3 4 5 7 8 9 9 9 10 11 11
6 5 4 4 4 3 2 2 1 2 2 2 2 2 2 2 1 0 1 1 1 1 1 1 0 0 0 0 1 1 1 2 2 3 3 5 7 8 9 9 10 10 11
6 5 5 5 4 4 3 2 2 2 2 1 2 2 2 2 1 1 1 1 1 1 2 1 1 1 1 0 1 1 1 1 1 2 2 3 4 6 7 8 9 9 10
5 5 5 5 5 4 3 3 2 2 2 2 2 1 2 2 2 2 1 0 1 2 1 1 1 1 1 1 0 1 0 0 1 1 1 2 2 3 4 5 6 8 10
6 6 5 4 5 5 4 3 2 2 1 1 1 1 1 2 2 2 1 1 1 2 1 0 1 1 0 1 1 1 1 0 1 1 1 1 1 2 3 4 4 5 8
6 5 5 5 4 4 3 2 1 1 1 1 1 1 2 2 2 3 2 1 2 1 1 1 1 1 0 0 0 1 1 1 0 0 1 1 1 1 2 2 2 3 5
5 6 6 6 4 4 2 2 2 1 0 1 1 1 2 2 2 2 1 1 1 1 1 1 1 1 2 1 1 2 2 1 1 1 1 1 1 1 2 2 2 2 3
7 7 6 6 5 4 3 2 2 2 1 1 0 1 1 2 2 2 2 1 1 1 1 1 1 1 1 2 1 1 2 3 2 1 1 1 1 1 1 2 2 2 3
8 8 8 7 5 4 3 3 3 3 2 1 1 1 1 1 1 2 2 1 1 1 0 1 0 1 0 1 1 2 1 1 2 2 1 1 1 1 2 2 2 3 3
8 7 7 6 6 5 5 4 4 3 2 2 1 0 1 1 1 1 2 1 1 0 0 1 1 1 1 0 0 1 1 2 1 2 2 1 1 1 2 2 3 3 4
7 8 8 7 6 5 5 6 5 3 2 1 1 1 1 1 1 1 1 1 1 0 0 1 1 1 1 1 1 1 1 0 1 1 2 3 2 2 2 2 3 3 4
6 6 7 8 6 6 6 5 5 5 4 3 2 1 0 0 1 1 0 0 0 0 1 1 1 1 0 0 0 0 1 1 1 1 2 3 3 3 2 2 2 3 3
Wind_Direction
167 170 158 149 138 128 123 122 124 124 123 123 124 129 134 137 139 142 145 146 144 142 142 141 141 142 142 140 139 138 136 136 137 139 138 138 137 136 134 131 132 131 132
152 160 157 150 143 133 124 124 125 125 126 126 128 131 134 135 139 141 144 145 147 146 145 145 144 146 145 145 141 141 141 140 144 146 144 142 141 140 140 140 139 139 139
138 152 154 148 141 133 126 126 127 126 126 126 129 132 134 134 138 141 143 145 146 149 149 146 146 146 143 143 144 144 145 145 147 147 142 135 140 144 145 148 146 145 145
140 142 149 143 139 134 131 131 131 129 127 126 128 130 133 136 140 144 146 146 146 149 149 149 147 146 148 150 151 150 150 149 149 148 139 144 151 154 155 152 151 149 150
137 141 154 142 140 139 136 134 133 132 130 130 130 132 134 137 142 145 148 146 148 150 153 154 153 155 157 158 157 157 159 157 154 147 141 153 160 164 165 163 160 158 156
141 143 156 146 143 139 140 140 137 135 134 133 133 135 139 142 142 142 144 148 152 154 152 153 157 164 169 169 165 164 165 161 154 147 151 162 168 175 174 174 174 171 170
142 141 157 150 142 139 141 142 141 139 136 135 133 134 140 143 146 147 150 151 155 159 158 158 163 172 182 182 178 175 174 169 160 161 168 175 183 184 183 183 184 182 180
134 133 151 153 147 146 148 147 144 142 140 139 137 135 139 143 147 154 159 160 165 169 171 172 175 184 191 189 183 184 180 176 172 174 179 187 193 189 188 188 188 188 189
116 119 128 147 153 153 152 149 148 149 147 145 141 140 140 147 150 157 163 169 172 180 191 197 201 199 200 195 192 193 192 191 182 183 192 196 202 201 199 194 193 192 192
106 110 112 117 133 149 155 149 149 153 156 150 145 142 139 142 159 172 172 177 182 190 204 213 223 215 209 207 204 202 200 196 187 193 198 199 205 209 208 203 202 201 197
129 113 117 121 122 139 148 158 157 156 156 156 155 154 146 114 96 178 184 193 192 197 206 214 221 223 214 211 209 204 199 190 192 200 205 205 207 210 208 206 208 209 202
169 164 144 147 147 145 151 139 139 144 136 139 132 122 92 66 42 8 204 218 220 213 210 207 199 202 203 206 213 213 204 194 195 206 211 211 211 214 210 208 209 209 203
177 177 173 167 153 145 135 125 126 135 125 127 122 118 96 68 27 24 26 346 322 317 244 150 178 225 203 195 188 191 205 209 208 213 216 216 218 218 214 212 210 208 207
168 180 173 166 156 154 150 140 133 133 146 153 181 182 149 76 24 31 36 357 8 7 25 36 103 286 235 231 198 190 208 218 214 220 223 223 225 223 219 219 214 209 210
178 184 177 167 165 163 155 168 165 176 189 198 201 204 177 162 129 35 13 11 24 25 39 19 22 36 346 355 248 197 203 217 218 219 229 230 228 225 222 219 216 213 212
190 190 177 166 162 151 157 172 180 191 202 201 214 221 200 185 163 83 23 21 8 15 32 52 47 84 108 117 318 264 233 221 233 233 232 233 235 230 227 225 219 217 214
193 189 182 172 152 154 168 183 180 187 187 198 221 216 201 195 178 139 55 12 6 32 46 43 31 54 54 76 313 279 239 240 238 225 230 235 237 237 235 229 220 215 213
184 181 185 176 156 164 176 186 174 170 169 200 217 203 194 193 173 144 117 28 42 63 60 57 39 29 21 30 322 302 298 234 232 200 199 231 234 240 247 239 227 220 216
182 177 176 171 160 171 177 169 156 139 140 173 178 158 174 176 167 148 136 92 88 81 57 13 77 101 7 344 309 327 325 302 255 218 203 224 231 236 245 241 237 234 228
176 171 172 171 167 162 151 128 105 87 88 104 119 138 159 167 160 134 110 79 78 70 34 39 74 68 64 321 30 28 9 358 4 279 251 241 236 243 247 253 255 248 241
171 174 176 173 173 158 151 152 150 173 174 80 98 158 167 159 146 125 100 90 88 89 36 32 77 46 33 44 64 19 2 9 5 313 295 278 273 264 254 247 248 253 255
185 185 181 181 174 174 175 160 147 143 139 142 59 79 150 156 152 144 127 132 118 86 35 28 64 71 33 56 94 80 5 356 349 325 312 279 297 299 277 249 240 238 238
190 189 189 182 171 170 154 121 103 86 62 42 29 20 358 143 129 123 137 137 129 137 13 358 78 136 109 39 74 125 127 260 316 331 325 321 325 273 268 255 238 242 239
195 186 176 169 161 161 151 148 151 158 177 213 208 231 6 40 77 110 131 133 133 116 351 334 69 151 149 156 73 88 155 172 184 315 327 326 312 289 276 259 245 240 238
184 174 168 155 152 156 157 162 160 165 179 150 108 85 42 21 27 46 121 140 149 218 324 6 32 68 176 195 199 176 166 139 178 208 288 313 323 294 279 261 253 253 244
172 164 157 149 151 158 160 164 166 166 160 141 137 150 172 342 355 2 66 122 185 246 284 304 357 24 16 252 267 212 182 181 204 204 247 279 293 296 294 278 268 262 253
Height
1501 1502 1502 1503 1504 1505 1505 1505 1506 1507 1508 1508 1509 1510 1511 1512 1514 1515 1517 1518 1520 1521 1523 1524 1526 1527 1529 1530 1532 1533 1535 1536 1538 1539 1540 1542 1543 1544 1545 1546 1547 1548 1549
1501 1502 1503 1504 1505 1506 1507 1507 1508 1508 1509 1510 1510 1511 1513 1514 1515 1516 1518 1519 1521 1522 1524 1525 1527 1528 1529 1530 1532 1534 1536 1537 1538 1540 1541 1543 1544 1545 1546 1547 1548 1549 1549
1502 1503 1504 1506 1506 1507 1508 1509 1509 1510 1511 1511 1512 1512 1514 1515 1516 1518 1519 1520 1522 1523 1525 1526 1527 1529 1530 1531 1533 1535 1537 1538 1539 1541 1542 1543 1544 1545 1546 1547 1548 1549 1550
1503 1504 1505 1507 1508 1509 1509 1510 1511 1511 1512 1513 1513 1514 1515 1516 1517 1519 1520 1521 1522 1524 1525 1527 1528 1530 1531 1532 1534 1536 1537 1539 1540 1541 1543 1544 1545 1546 1547 1548 1549 1550 1551
1504 1506 1507 1508 1509 1510 1511 1512 1512 1513 1513 1514 1515 1516 1517 1518 1519 1520 1520 1522 1523 1525 1526 1528 1529 1530 1532 1533 1535 1537 1538 1539 1541 1542 1543 1544 1545 1546 1547 1548 1549 1550 1551
1505 1507 1508 1510 1511 1512 1513 1513 1514 1514 1515 1516 1516 1517 1518 1519 1520 1521 1521 1523 1524 1526 1527 1528 1530 1531 1533 1534 1536 1537 1538 1540 1541 1542 1544 1545 1546 1547 1547 1548 1550 1550 1551
1506 1508 1510 1511 1512 1513 1514 1515 1516 1516 1516 1517 1518 1519 1519 1520 1521 1522 1523 1524 1525 1527 1528 1529 1530 1532 1533 1534 1536 1537 1539 1540 1541 1542 1544 1545 1546 1546 1547 1548 1549 1550 1551
1508 1510 1511 1513 1514 1515 1515 1516 1517 1517 1518 1519 1519 1520 1521 1522 1522 1523 1524 1525 1526 1528 1529 1530 1531 1532 1533 1535 1536 1537 1539 1540 1541 1542 1543 1544 1545 1546 1547 1548 1549 1550 1551
1511 1512 1513 1514 1515 1516 1517 1518 1518 1519 1520 1520 1521 1521 1522 1523 1523 1524 1525 1526 1527 1528 1529 1530 1531 1532 1534 1535 1536 1537 1538 1540 1541 1542 1543 1544 1545 1546 1547 1548 1548 1549 1550
1513 1514 1515 1516 1517 1517 1518 1519 1519 1520 1521 1521 1522 1523 1523 1524 1525 1525 1526 1527 1528 1529 1529 1530 1531 1532 1533 1534 1535 1537 1538 1539 1540 1541 1542 1543 1544 1545 1546 1547 1548 1548 1549
1515 1516 1516 1517 1518 1519 1519 1520 1521 1521 1522 1522 1523 1524 1525 1525 1526 1526 1527 1527 1528 1529 1530 1530 1531 1532 1533 1534 1535 1536 1537 1538 1539 1540 1541 1542 1543 1544 1545 1546 1547 1548 1548
1515 1517 1518 1519 1519 1520 1521 1521 1522 1522 1523 1524 1524 1525 1526 1526 1526 1527 1527 1528 1528 1529 1529 1530 1531 1531 1532 1533 1534 1535 1536 1537 1538 1539 1540 1541 1542 1543 1544 1545 1546 1547 1548
1517 1518 1519 1520 1521 1522 1522 1523 1523 1524 1524 1525 1526 1526 1527 1527 1527 1528 1528 1528 1529 1529 1530 1530 1531 1532 1533 1533 1534 1535 1536 1536 1537 1538 1539 1540 1541 1542 1543 1544 1544 1545 1546
1518 1519 1520 1521 1522 1523 1524 1524 1525 1525 1526 1526 1527 1527 1528 1528 1528 1529 1529 1529 1529 1529 1529 1530 1531 1531 1532 1533 1534 1534 1535 1535 1536 1537 1538 1539 1539 1540 1541 1542 1543 1544 1545
1518 1520 1521 1522 1523 1524 1525 1525 1526 1526 1527 1527 1528 1528 1529 1529 1529 1529 1530 1530 1530 1530 1530 1530 1531 1531 1531 1532 1533 1534 1534 1534 1535 1536 1537 1537 1538 1539 1539 1540 1541 1542 1543
1519 1520 1521 1522 1524 1525 1525 1526 1527 1527 1528 1528 1529 1529 1530 1530 1530 1530 1530 1530 1530 1530 1530 1530 1530 1531 1531 1532 1532 1533 1533 1533 1534 1534 1535 1536 1537 1537 1538 1539 1539 1540 1541
1519 1520 1522 1523 1524 1525 1526 1527 1527 1528 1529 1529 1529 1530 1530 1530 1530 1530 1531 1531 1531 1531 1531 1530 1530 1530 1530 1530 1531 1531 1532 1532 1533 1533 1534 1534 1535 1535 1536 1537 1538 1539 1540
1519 1520 1522 1523 1524 1525 1526 1527 1528 1528 1529 1529 1530 1530 1530 1530 1531 1531 1531 1531 1531 1531 1531 1530 1529 1529 1529 1529 1529 1530 1530 1531 1531 1532 1532 1533 1533 1533 1534 1535 1536 1537 1538
1519 1520 1522 1523 1524 1525 1526 1527 1528 1528 1529 1529 1530 1530 1531 1531 1531 1531 1531 1531 1531 1531 1530 1529 1529 1528 1528 1528 1528 1528 1529 1529 1530 1530 1531 1531 1531 1532 1532 1533 1534 1535 1536
1518 1520 1521 1523 1524 1525 1526 1527 1528 1528 1529 1529 1530 1530 1531 1531 1532 1532 1531 1531 1531 1531 1530 1529 1529 1528 1528 1527 1527 1527 1528 1528 1529 1529 1530 1530 1530 1530 1531 1532 1532 1533 1534
1517 1519 1520 1522 1523 1525 1526 1526 1527 1528 1529 1529 1530 1531 1531 1531 1531 1532 1531 1531 1531 1530 1530 1529 1528 1528 1527 1527 1527 1527 1527 1528 1528 1528 1529 1529 1529 1529 1530 1530 1531 1531 1532
1515 1517 1519 1521 1522 1524 1525 1526 1527 1528 1529 1529 1530 1530 1530 1531 1531 1531 1531 1531 1531 1530 1529 1529 1528 1528 1527 1527 1527 1527 1527 1528 1527 1527 1528 1528 1528 1528 1529 1529 1529 1530 1531
1513 1515 1517 1519 1521 1523 1524 1526 1527 1527 1528 1528 1529 1529 1530 1530 1530 1530 1530 1530 1530 1529 1529 1528 1528 1528 1527 1527 1527 1528 1527 1527 1527 1527 1526 1527 1527 1527 1527 1527 1528 1528 1529
1511 1513 1515 1517 1519 1521 1523 1525 1525 1526 1526 1527 1528 1529 1529 1530 1530 1530 1529 1529 1529 1529 1528 1528 1527 1527 1527 1527 1527 1527 1527 1527 1527 1526 1526 1526 1525 1525 1525 1525 1526 1526 1526
1508 1510 1512 1515 1518 1520 1521 1523 1524 1525 1526 1526 1527 1528 1528 1528 1529 1529 1529 1528 1528 1528 1527 1527 1526 1526 1526 1526 1526 1526 1525 1525 1525 1525 1524 1524 1524 1524 1523 1523 1523 1523 1524
1506 1508 1510 1513 1515 1518 1520 1521 1523 1523 1524 1525 1525 1526 1526 1527 1527 1528 1528 1527 1527 1526 1526 1526 1525 1525 1525 1525 1525 1524 1524 1524 1523 1523 1522 1522 1521 1521 1521 1521 1521 1521 1521